N6EQ Weather Reports


time (UTC)temp
C
wind
direction
speed
KPH
gust
KPH
rain 1hr
cm
rain 24hr
cm
rain mn
cm
humidity
%
barometer
mb
20260904020048 35 149 3.2 30.6 0.00 0.00 0.00 10 946.1
20260904014546 35 159 12.9 22.5 0.00 0.00 0.00 11 946.1
20260904013044 36 135 11.3 27.4 0.00 0.00 0.00 11 946.1
20260904011543 36 188 9.7 32.2 0.00 0.00 0.00 11 946.2
20260904010043 36 165 6.4 27.4 0.00 0.00 0.00 9 946.2
20260904004542 36 155 8.0 35.4 0.00 0.00 0.00 10 946.2
20260904003040 36 203 12.9 33.8 0.00 0.00 0.00 11 946.4
20260904001540 36 183 11.3 32.2 0.00 0.00 0.00 13 946.4
20260904000038 36 213 17.7 35.4 0.00 0.00 0.00 12 946.5
20260903234537 36 143 14.5 29.0 0.00 0.00 0.00 13 946.6
20260903233036 36 133 16.1 38.6 0.00 0.00 0.00 13 946.7
20260903231532 36 19.3 29.0 0.00 0.00 0.00 12 947.2
20260903230032 36 220 12.9 37.0 0.00 0.00 0.00 13 947.3
20260903224535 36 185 22.5 35.4 0.00 0.00 0.00 13 947.4
20260903223029 36 172 17.7 32.2 0.00 0.00 0.00 11 947.7
20260903221542 36 166 20.9 38.6 0.00 0.00 0.00 11 947.9
20260903220024 36 202 22.5 38.6 0.00 0.00 0.00 11 947.9
20260903214524 36 142 25.7 40.2 0.00 0.00 0.00 10 948.2
20260903213023 36 222 20.9 37.0 0.00 0.00 0.00 9 948.3
20260903211520 36 181 19.3 40.2 0.00 0.00 0.00 9 948.4
20260903210019 35 140 24.1 37.0 0.00 0.00 0.00 8 948.6
20260903204518 35 70 17.7 35.4 0.00 0.00 0.00 8 948.7
20260903203020 35 212 9.7 32.2 0.00 0.00 0.00 8 948.9
20260903201513 35 154 12.9 29.0 0.00 0.00 0.00 9 949.0
20260903200017 34 166 17.7 30.6 0.00 0.00 0.00 11 949.2
20260903194522 34 209 14.5 32.2 0.00 0.00 0.00 11 949.5
20260903193007 33 16.1 0.0 0.00 0.00 0.00 12 949.7
20260903191505 33 192 19.3 35.4 0.00 0.00 0.00 10 950.0
20260903190004 33 212 16.1 37.0 0.00 0.00 0.00 12 950.3
20260903184503 33 229 22.5 32.2 0.00 0.00 0.00 11 950.4
20260903183002 33 135 19.3 35.4 0.00 0.00 0.00 12 950.7
20260903181558 32 17.7 33.8 0.00 0.00 0.00 13 950.7
20260903180114 32 170 8.0 27.4 0.00 0.00 0.00 16 950.8
20260903174555 31 212 16.1 29.0 0.00 0.00 0.00 16 950.9
20260903173052 31 173 16.1 25.7 0.00 0.00 0.00 17 951.0
20260903171553 31 198 14.5 27.4 0.00 0.00 0.00 17 951.1
20260903170049 30 216 12.9 32.2 0.00 0.00 0.00 18 951.0
20260903164556 30 224 14.5 24.1 0.00 0.00 0.00 17 951.0
20260903163047 29 240 11.3 22.5 0.00 0.00 0.00 18 951.0
20260903161544 29 240 12.9 22.5 0.00 0.00 0.00 18 951.0
20260903160044 28 192 9.7 19.3 0.00 0.00 0.00 19 950.9
20260903154544 28 210 9.7 16.1 0.00 0.00 0.00 19 950.9
20260903153042 27 193 4.8 11.3 0.00 0.00 0.00 20 951.1
20260903151542 27 236 1.6 8.0 0.00 0.00 0.00 21 951.1
20260903150041 26 222 0.0 0.0 0.00 0.00 0.00 21 951.1
20260903144540 26 223 0.0 0.0 0.00 0.00 0.00 21 951.0
20260903143037 26 216 1.6 4.8 0.00 0.00 0.00 20 950.8
20260903141536 26 94 0.0 0.0 0.00 0.00 0.00 20 950.6
20260903140034 26 126 0.0 0.0 0.00 0.00 0.00 20 950.4
20260903134532 25 187 1.6 4.8 0.00 0.00 0.00 21 950.3
20260903133028 24 104 1.6 8.0 0.00 0.00 0.00 21 950.0
20260903131526 25 112 3.2 6.4 0.00 0.00 0.00 20 949.8
20260903130029 25 113 4.8 8.0 0.00 0.00 0.00 20 949.8
20260903124523 25 112 4.8 6.4 0.00 0.00 0.00 19 949.7
20260903123022 23 95 4.8 11.3 0.00 0.00 0.00 19 949.6
20260903121521 24 88 6.4 9.7 0.00 0.00 0.00 18 949.5
20260903120019 25 108 3.2 6.4 0.00 0.00 0.00 17 949.5
20260903114517 25 121 3.2 8.0 0.00 0.00 0.00 16 949.6
20260903113025 25 101 1.6 4.8 0.00 0.00 0.00 16 949.6
20260903111512 25 169 0.0 8.0 0.00 0.00 0.00 15 949.5
20260903110014 26 139 3.2 6.4 0.00 0.00 0.00 15 949.4
20260903104507 26 129 3.2 6.4 0.00 0.00 0.00 14 949.5
20260903103005 27 138 4.8 8.0 0.00 0.00 0.00 14 949.5
20260903101507 27 128 6.4 9.7 0.00 0.00 0.00 14 949.4
20260903100004 27 114 6.4 9.7 0.00 0.00 0.00 14 949.3
20260903094505 27 113 6.4 9.7 0.00 0.00 0.00 13 949.3
20260903093002 27 120 4.8 9.7 0.00 0.00 0.00 13 949.2
20260903091600 27 97 8.0 12.9 0.00 0.00 0.00 12 949.2
20260903091502 27 85 8.0 12.9 0.00 0.00 0.00 12 949.2
20260903090058 27 113 3.2 8.0 0.00 0.00 0.00 12 949.2
20260903084556 28 109 6.4 8.0 0.00 0.00 0.00 12 949.3
20260903083054 28 3.2 6.4 0.00 0.00 0.00 12 949.4
20260903081553 28 3.2 9.7 0.00 0.00 0.00 12 949.4
20260903080051 28 3.2 4.8 0.00 0.00 0.00 11 949.4
20260903074559 28 140 1.6 6.4 0.00 0.00 0.00 11 949.3
20260903073047 29 305 0.0 4.8 0.00 0.00 0.00 12 949.2
20260903071550 30 242 1.6 9.7 0.00 0.00 0.00 10 949.1
20260903070041 30 110 8.0 14.5 0.00 0.00 0.00 9 949.1
20260903064540 31 110 11.3 19.3 0.00 0.00 0.00 9 949.0
20260903063041 30 129 12.9 19.3 0.00 0.00 0.00 9 949.0
20260903061549 30 105 12.9 19.3 0.00 0.00 0.00 9 949.0
20260903060038 31 112 16.1 20.9 0.00 0.00 0.00 9 949.0
20260903054546 31 113 11.3 16.1 0.00 0.00 0.00 10 949.2
20260903053059 31 107 9.7 17.7 0.00 0.00 0.00 10 949.2
20260903051536 31 121 9.7 12.9 0.00 0.00 0.00 10 949.2
20260903050035 31 108 9.7 14.5 0.00 0.00 0.00 10 949.2
20260903044545 31 113 8.0 14.5 0.00 0.00 0.00 9 949.3
20260903043034 31 107 11.3 17.7 0.00 0.00 0.00 9 949.3
20260903041534 31 105 12.9 16.1 0.00 0.00 0.00 9 949.2
20260903040034 31 9.7 14.5 0.00 0.00 0.00 9 949.1
20260903034532 31 8.0 11.3 0.00 0.00 0.00 10 948.9
20260903033031 32 8.0 12.9 0.00 0.00 0.00 10 948.7
20260903031531 32 8.0 11.3 0.00 0.00 0.00 10 948.7
20260903030039 33 117 3.2 8.0 0.00 0.00 0.00 9 948.6
20260903024539 33 190 4.8 11.3 0.00 0.00 0.00 9 948.4
20260903023029 34 203 6.4 14.5 0.00 0.00 0.00 9 948.4
20260903021533 35 181 11.3 20.9 0.00 0.00 0.00 9 948.3